Location: LDNL
(36.4545°S, 141.6685°E)
Time: 11:21:06
(UTC+10:00)

Envisat - Pass Details

Date: 04 March 2024
Orbit: 762 x 764 km, 98.3° (Epoch: 12 July)

Event Time Altitude Azimuth Distance (km) Brightness Sun altitude
Exits shadow 05:02:34 12° 216° (SW) 2,184 5.3 -27.0°
Drops below altitude 10° 05:02:59 10° 213° (SSW) 2,328 5.5 -26.9°
Sets 05:05:33 0° 203° (SSW) 3,263 6.4 -26.5°
